User: anonymous   Login
Location: Killam
(52.7910°N, 111.8608°W)
Time: 06:40:47
(UTC+00:00)
Language:

ITUPSAT 1 - Orbit

View from above orbital plane
View from above orbital plane
View from above satellite
View from above satellite

Ground track
Ground track

The orbit is defined by the following mean orbital elements,

1 35935U          26069.64205315 +.00000000 +00000-0 +25245-3 0 00008
2 35935  98.4112 334.9339 0007329 175.0903 185.0370 14.60270533    07
Epoch (UTC): 10 March 2026 15:24:33
Eccentricity: 0.0007329
inclination: 98.4112°
perigee height: 687 km
apogee height: 697 km
right ascension of ascending node: 334.9339°
argument of perigee: 175.0903°
revolutions per day: 14.60270533
mean anomaly at epoch: 185.0370°

The dashed part of the orbit path shows where the satellite is in the earth's shadow,  

DLR